This demonstration page uses our WeatherBlox Daily Observations layout. Learn more.

Left ArrowRight Arrow

39.01783, -85.05884

Hourly Observations for February 20, 2016

Temp ( °F °C ) Dew Point ( °F °C ) Humidity (%) Winds ( mph kmh ) Pressure ( in mb ) Visibility ( mi km ) Precip ( " mm )
12:37 am 00:37 Mostly Cloudy 57 14 48 9 72 72 WSW 9 15 30.03 1017 10 16 N/A
12:52 am 00:52 Mostly Cloudy 57 13.9 49 9.4 74 74 WSW 8 13 30.01 1016 10 16 N/A
1:25 am 01:25 Partly Cloudy 55 13 50 10 82 82 SW 8 13 30.03 1017 10 16 N/A
1:41 am 01:41 Mostly Cloudy 55 13 50 10 82 82 SW 10 17 30.03 1017 10 16 N/A
1:52 am 01:52 Mostly Cloudy 56 13.3 50 10 81 81 SW 8 13 30.01 1016 10 16 N/A
2:52 am 02:52 Mostly Clear 54 12.2 50 10 87 87 SW 8 13 30.02 1017 10 16 N/A
3:52 am 03:52 Partly Cloudy 53 11.7 49 9.4 86 86 SW 6 9 30.01 1016 10 16 N/A
4:52 am 04:52 Partly Cloudy 51 10.6 49 9.4 92 92 SSW 7 11 30.01 1016 9 14 N/A
5:52 am 05:52 Partly Cloudy 50 10 48 8.9 93 93 SSW 6 9 30.01 1016 7 11 N/A
6:52 am 06:52 Mostly Cloudy with Mist and Fog 50 10 48 8.9 93 93 SSW 8 13 30.01 1016 5 8 N/A
7:52 am 07:52 Mostly Cloudy with Mist and Fog 50 10 48 8.9 93 93 SSW 10 17 30.02 1017 3 5 N/A
8:13 am 08:13 Mostly Cloudy with Mist and Fog 50 10 48 9 94 94 SSW 9 15 30.03 1017 3 4 N/A
8:52 am 08:52 Mostly Cloudy with Mist and Fog 50 10 49 9.4 96 96 SSW 9 15 30.03 1017 3 4 N/A
9:31 am 09:31 Mostly Cloudy with Mist and Fog 52 11 50 10 94 94 SSW 10 17 30.03 1017 4 6 N/A
9:52 am 09:52 Partly Cloudy 54 12.2 51 10.6 90 90 SSW 10 17 30.03 1017 7 11 N/A
10:52 am 10:52 Partly Cloudy 58 14.4 51 10.6 78 78 S 14 22 30.02 1017 10 16 N/A
11:52 am 11:52 Mostly Sunny 64 17.8 49 9.4 58 58 SSW 10 17 30.01 1016 10 16 N/A
12:52 pm 12:52 Mostly Sunny 69 20.6 46 7.8 44 44 SW 13 20 29.97 1015 10 16 N/A
1:52 pm 13:52 Mostly Sunny 70 21.1 41 5 35 35 WSW 18 30 29.95 1014 10 16 N/A
2:52 pm 14:52 Mostly Sunny 71 21.7 42 5.6 35 35 WSW 15 24 29.93 1014 10 16 N/A
3:52 pm 15:52 Mostly Sunny 72 22.2 39 3.9 30 30 W 16 26 29.92 1013 10 16 N/A
4:52 pm 16:52 Sunny 71 21.7 41 5 34 34 WSW 12 19 29.91 1013 10 16 N/A
5:52 pm 17:52 Sunny 69 20.6 41 5 36 36 SW 10 17 29.92 1013 10 16 N/A
6:52 pm 18:52 Clear 65 18.3 42 5.6 43 43 SW 5 7 29.94 1014 10 16 N/A
8:52 pm 20:52 Mostly Clear 61 16.1 44 6.7 54 54 SSW 6 9 29.97 1015 10 16 N/A
9:52 pm 21:52 Mostly Clear 56 13.3 44 6.7 65 65 SSW 7 11 29.98 1015 10 16 N/A
10:52 pm 22:52 Mostly Cloudy 58 14.4 46 7.8 65 65 SSW 7 11 29.97 1015 10 16 N/A
11:52 pm 23:52 Partly Cloudy 58 14.4 49 9.4 72 72 S 8 13 29.95 1014 10 16 N/A

Powered by AerisWeather